Location: Prostejov
(49.4670°N, 17.1170°E)
Time: 10:13:08
(UTC+01:00)

ISS - Visible Passes

Search period start: 19 January 2019 00:00
Search period end: 29 January 2019 00:00
Orbit: 404 x 411 km, 51.6° (Epoch: 19 January)

Date Brightness Start Highest point End Pass type
(mag) Time Alt. Az. Time Alt. Az. Time Alt. Az.
23 Jan -2.0 18:39:06 10° SSW 18:40:56 23° S 18:40:56 23° S visible
24 Jan -1.9 17:48:26 10° S 17:50:46 18° SE 17:51:51 16° ESE visible
24 Jan -1.1 19:23:36 10° WSW 19:24:35 18° WSW 19:24:35 18° WSW visible
25 Jan -3.5 18:32:19 10° SW 18:35:26 52° SSE 18:35:26 52° SSE visible
26 Jan -2.8 17:41:11 10° SW 17:44:13 34° SSE 17:46:13 17° E visible
26 Jan -1.6 19:17:19 10° W 19:18:57 26° W 19:18:57 26° W visible
27 Jan -3.9 18:25:51 10° WSW 18:29:10 88° SSE 18:29:40 61° ENE visible
28 Jan -3.6 17:34:28 10° WSW 17:37:44 63° SSE 17:40:21 15° ENE visible
28 Jan -2.1 19:11:03 10° W 19:13:04 32° WNW 19:13:04 32° WNW visible
